Hourly Data Report for October 10, 2015

All times are specified in Local Standard Time (LST). Add 1 hour to adjust for Daylight Saving Time where and when it is observed.

ST LEONARD CS
NEW BRUNSWICK

47°09'28.050" N
67°49'55.014" W
245.00 m
810I001
71019
WIY

Download Data

Hourly Data (October 2015)
Hourly Data Report for October 10, 2015
Temp Definition
°C
Dew Point Temp Definition
°C
Rel Hum Definition
%
Wind Dir Definition
10's deg

Wind Spd Definition
km/h
Visibility Definition
km
Stn Press Definition
kPa
Hmdx Definition


Wind Chill Definition


Weather Definition


TIME
00:00 3.6 3.3 98 30 26   97.42     LegendNANA
01:00 2.6 1.9 95 30 20   97.52     LegendNANA
02:00 2.4 1.5 94 30 29   97.59     LegendNANA
03:00 2.6 1.5 92 30 28   97.67     LegendNANA
04:00 2.8 1.7 93 30 23   97.74     LegendNANA
05:00 2.8 0.7 86 31 25   97.84     LegendNANA
06:00 1.5 -1.1 83 30 32   97.95     LegendNANA
07:00 0.4 -3.3 76 31 31   98.09     LegendNANA
08:00 0.4 -3.3 76 32 36   98.18     LegendNANA
09:00 1.4 -3.9 68 32 39   98.27     LegendNANA
10:00 2.1 -5.4 57 32 39   98.36     LegendNANA
11:00 3.3 -4.8 55 31 31   98.38     LegendNANA
12:00 4.0 -5.3 51 30 28   98.45     LegendNANA
13:00 5.5 -4.5 48 29 26   98.41     LegendNANA
14:00 5.6 -5.9 43 29 20   98.37     LegendNANA
15:00 5.8 -8.0 36 30 21   98.33     LegendNANA
16:00 5.9 -7.2 39 29 23   98.32     LegendNANA
17:00 4.9 -5.4 47 28 13   98.33     LegendNANA
18:00 2.6 -5.1 57 29 10   98.34     LegendNANA
19:00 1.2 -4.6 65 29 11   98.36     LegendNANA
20:00 0.0 -3.7 76 24 6   98.37   -2 LegendNANA
21:00 -1.0 -4.0 80 18 6   98.36   -3 LegendNANA
22:00 -0.3 -3.5 79 19 8   98.35   -3 LegendNANA
23:00 0.2 -2.9 79 16 9   98.32     LegendNANA

Notes on Data Quality.

Legend

  • E = Estimated
  • M = Missing
  • NA = Not Available
  • ‡ = Partner data that is not subject to review by the National Climate Archives
Date modified: